Погода в Хор-Факкане

Объединённые Арабские Эмираты     25°20′57″N   56°21′00″E
темп.,
°C
ветер,
м/с
пор.,
м/с
влажн.,
%
обл.,
%
осадки,
мм/ч
давл.,
гПа
погр.,
м
15 мая, сб
сб1501:00+31сз11310 0.0 100211
04:00+29всв00320 0.0 100211
07:00+31вюв11280 0.0 1004115
10:00+36юв33130 0.0 1004740
13:00+40вюв4690 0.0 10023529
16:00+39всв44112 0.0 10002738
19:00+36юз11130 0.0 1002197
22:00+34зсз22150 0.0 100420
16 мая, вс
вс1601:00+30ссв22250 0.0 100316
04:00+28в11410 0.0 100412
07:00+30юв34320 0.0 1005163
10:00+37вюв34130 0.0 1005796
13:00+39юв55120 0.0 10041967
16:00+39зсз77120 0.0 10031851
19:00+35зсз46150 0.0 1004426
22:00+32з22210 0.0 100521
17 мая, пн
пн1701:00+30з33230 0.0 100417
04:00+28з22230 0.0 100411
07:00+31св11170 0.0 100698
10:00+36в22110 0.0 1006924
13:00+38вюв54140 0.0 10052220
16:00+37в43140 0.0 10031287
19:00+35вюв22120 0.0 1004189
22:00+32зюз11120 0.0 100411
18 мая, вт
вт1801:00+31с22130 0.0 100411
04:00+29сз11160 0.0 100311
07:00+33зюз00110 0.0 100552
10:00+39всв1375 0.0 10051625
13:00+40в5475 0.0 10041985
16:00+41вюв5370 0.0 10022387
19:00+38зюз1190 0.0 100312
22:00+35сз22110 0.0 100412
19 мая, ср
ср1901:00+33зсз22140 0.0 100314
04:00+31зсз22160 0.0 100311
07:00+34ю11100 0.0 100469
10:00+40ю1172 0.0 10041295
13:00+41всв23100 0.0 10033376
16:00+41ссз34110 0.0 10012827
19:00+36зсз47170 0.0 1003344
22:00+32з59260 0.0 1003255